Tracking 29510 objects as of 16-Sep-2024
HD Live streaming from Space Station
objects crossing your sky now

STARLINK-6113

Track STARLINK-6113 now!
10-day predictions
STARLINK-6113 is classified as:


NORAD ID: 56113
Int'l Code: 2023-046W
Perigee: 565.1 km
Apogee: 567.2 km
Inclination: 43.0 °
Period: 95.8 minutes
Semi major axis: 6937 km
RCS: Unknown
Launch date: March 29, 2023
Source: United States (US)
Launch site: AIR FORCE EASTERN TEST RANGE (AFETR)
Your satellite tracking list
Your tracking list is empty




NASA's NSSDC Master Catalog

Two Line Element Set (TLE):
1 56113U 23046W   24260.53365193 -.00001868  00000-0 -12320-3 0  9996
2 56113  43.0049 208.1667 0001550 261.7645  98.3022 15.02550408 80967
Source of the keplerian elements: AFSPC